Terug naar catalogus

KUIPER-00155

ActiefCommunicatieLEO
NORAD 65774·PAYLOAD·🇺🇸 United States

Gelanceerd Sep 25, 2025 vanaf Cape Canaveral Space Force Station

Loading…

Volgende Passages (komende 24 uur)

TLE

VersSource: CelesTrak SupGP

Epoch: Sep 14, 2026, 22:50 UTC

1 65774C 25217N   26257.95185185  .00001855  00000+0  24282-3 0  2576
2 65774  51.9010 241.2364 0000681  76.7126 291.0171 14.79923529    16

Volg KUIPER-00155 in realtime met AllMySat

Download on the App Store